1516687200.72,6540,3.25,72674.5,-14.01,-26.07,-27.83,0,*5E
1516687201.96,6541,3.31,72678.8,-14.03,-26.13,-27.89,0,*52
1516687203.19,6542,3.25,72676.0,-14.03,-26.13,-27.89,0,*51
1516687204.42,6543,3.25,72676.3,-14.03,-26.29,-27.93,0,*52
1516687205.62,6544,3.25,72678.3,-14.03,-26.23,-27.93,0,*5F
1516687206.85,6545,3.25,72676.8,-14.03,-26.23,-28.09,0,*52
1516687208.1,6546,3.25,72676.3,-14.03,-26.29,-28.09,0,*5B
1516687209.33,6547,3.25,72676.3,-14.03,-26.23,-28.25,0,*5E
1516687210.56,6548,3.25,72676.5,-14.03,-26.23,-28.09,0,*5F
1516687211.82,6549,3.25,72678.5,-14.05,-26.23,-28.09,0,*58
1516687213.08,6550,3.31,72678.0,-14.05,-26.23,-28.09,0,*50
1516687214.37,6551,3.25,72676.5,-14.05,-26.29,-28.25,0,*55
1516687215.63,6552,3.25,72676.0,-14.05,-26.23,-28.25,0,*5C
1516687216.89,6553,3.31,72680.0,-14.05,-26.29,-28.31,0,*52
1516687218.16,6554,3.25,72676.8,-14.05,-26.29,-28.31,0,*55
1516687219.4,6555,3.31,72678.0,-14.05,-26.45,-28.31,0,*5E
1516687220.65,6556,3.25,72674.0,-14.05,-26.39,-28.31,0,*56
1516687221.91,6557,3.25,72678.0,-14.05,-26.45,-28.43,0,*59
1516687223.15,6558,3.31,72680.0,-14.05,-26.45,-28.31,0,*53
1516687224.41,6559,3.31,72680.0,-14.05,-26.45,-28.43,0,*57
1516687225.69,6560,3.25,72676.8,-14.05,-26.55,-28.43,0,*5C
1516687226.95,6561,3.31,72680.5,-14.05,-26.61,-28.43,0,*5A
1516687228.22,6562,3.25,72680.8,-14.05,-26.71,-28.31,0,*5D
1516687229.5,6563,3.25,72678.3,-14.05,-26.71,-28.43,0,*59
1516687230.79,6564,3.25,72678.8,-14.05,-26.77,-28.47,0,*5C
1516687232.09,6565,3.25,72676.3,-14.05,-26.77,-28.59,0,*52
1516687233.38,6566,3.25,72678.3,-14.05,-26.93,-28.59,0,*5B
1516687234.67,6567,3.25,72678.3,-14.05,-26.97,-28.47,0,*51
1516687235.96,6568,3.25,72676.5,-14.05,-26.97,-28.47,0,*5E
1516687237.22,6569,3.31,72682.5,-14.05,-27.07,-28.47,0,*57
1516687238.52,6570,3.25,72678.3,-14.05,-26.97,-28.43,0,*53
1516687239.78,6571,3.31,72678.0,-14.05,-27.07,-28.43,0,*5A
1516687241.04,6572,3.25,72680.0,-14.05,-27.07,-28.43,0,*59
1516687242.29,6573,3.31,72682.8,-14.05,-27.07,-28.31,0,*5D
1516687243.56,6574,3.25,72674.3,-14.05,-27.23,-28.31,0,*5C
1516687244.8,6575,3.25,72678.5,-14.05,-27.13,-28.31,0,*5E
1516687246.06,6576,3.31,72680.5,-14.05,-27.23,-28.31,0,*5E
1516687247.35,6577,3.31,72680.3,-14.05,-27.23,-28.25,0,*5A
1516687248.64,6578,3.25,72678.0,-14.05,-27.23,-28.09,0,*5B
1516687249.91,6579,3.25,72678.0,-14.05,-27.07,-28.05,0,*50
1516687251.17,6580,3.31,72676.8,-14.05,-27.13,-28.09,0,*5F
1516687252.46,6581,3.25,72674.0,-14.05,-27.23,-28.09,0,*5D
1516687253.72,6582,3.31,72678.0,-14.05,-27.29,-28.09,0,*54
1516687255.02,6583,3.25,72676.8,-14.05,-27.39,-28.05,0,*58
1516687256.3,6584,3.25,72674.3,-14.05,-27.39,-28.09,0,*53
1516687257.59,6585,3.31,72680.0,-14.05,-27.45,-28.09,0,*59
1516687258.83,6586,3.31,72682.5,-14.05,-27.55,-28.15,0,*56
1516687260.1,6587,3.31,72680.8,-14.05,-27.55,-28.09,0,*5A
1516687261.36,6588,3.31,72678.5,-14.05,-27.55,-28.09,0,*55
1516687262.62,6589,3.25,72676.0,-14.05,-27.55,-28.05,0,*58
1516687263.92,6590,3.31,72680.3,-14.05,-27.61,-28.09,0,*5B
1516687265.21,6591,3.25,72678.0,-14.05,-27.61,-28.09,0,*5A
1516687266.51,6592,3.25,72678.3,-14.05,-27.61,-28.09,0,*59
1516687267.77,6593,3.31,72678.8,-14.05,-27.71,-28.09,0,*59
1516687269.04,6594,3.25,72678.0,-14.05,-27.71,-28.05,0,*52
1516687270.34,6595,3.31,72682.5,-14.05,-27.61,-28.05,0,*52
1516687271.6,6596,3.25,72676.0,-14.05,-27.61,-27.93,0,*51
1516687272.87,6597,3.25,72680.0,-14.05,-27.71,-28.05,0,*51
1516687274.14,6598,3.25,72678.5,-14.05,-27.71,-28.05,0,*5E
1516687275.4,6599,3.25,72678.0,-14.05,-27.61,-27.93,0,*5E
1516687276.67,6600,3.25,72682.3,-14.05,-27.45,-27.89,0,*50
1516687277.93,6601,3.31,72678.8,-14.05,-27.39,-27.77,0,*5B
1516687279.19,6602,3.25,72676.0,-14.09,-27.35,-27.67,0,*59
1516687280.45,6603,3.25,72672.8,-14.09,-27.35,-27.77,0,*59
1516687281.69,6604,3.31,72678.0,-14.05,-27.29,-27.89,0,*5E
1516687282.95,6605,3.25,72678.3,-14.09,-27.35,-27.77,0,*5F
1516687284.2,6606,3.25,72678.3,-14.09,-27.35,-27.77,0,*5C
1516687285.46,6607,3.25,72680.0,-14.09,-27.19,-27.67,0,*52
1516687286.74,6608,3.25,72676.3,-14.09,-27.19,-27.61,0,*5B
1516687288.0,6609,3.25,72678.8,-14.09,-27.03,-27.45,0,*57
1516687289.29,6610,3.25,72672.5,-14.09,-26.97,-27.45,0,*53
1516687290.58,6611,3.25,72674.5,-14.09,-26.81,-27.45,0,*55
1516687291.84,6612,3.25,72676.3,-14.09,-26.81,-27.51,0,*53
1516687293.13,6613,3.25,72678.8,-14.09,-26.97,-27.45,0,*50
1516687294.42,6614,3.25,72678.5,-14.09,-26.93,-27.45,0,*53
1516687295.68,6615,3.25,72674.0,-14.05,-26.77,-27.55,0,*55
1516687296.94,6616,3.25,72676.5,-14.05,-26.87,-27.61,0,*5E
1516687298.21,6617,3.31,72680.8,-14.05,-26.77,-27.55,0,*57
1516687299.47,6618,3.31,72676.8,-14.05,-26.87,-27.61,0,*50
1516687300.74,6619,3.25,72678.3,-14.05,-26.77,-27.71,0,*5F
1516687302.0,6620,3.25,72676.8,-14.05,-26.71,-27.71,0,*53
1516687303.26,6621,3.31,72680.8,-14.05,-26.55,-27.71,0,*54
1516687304.52,6622,3.25,72678.8,-14.05,-26.55,-27.77,0,*51
1516687305.78,6623,3.25,72678.3,-14.05,-26.55,-27.71,0,*56
1516687306.99,6624,3.25,72680.0,-14.11,-26.49,-27.77,0,*5F
1516687308.25,6625,3.31,72678.5,-14.09,-26.45,-27.83,0,*50
1516687309.49,6626,3.25,72678.5,-14.09,-26.49,-27.93,0,*5E
1516687310.77,6627,3.25,72678.5,-14.09,-26.29,-27.61,0,*54
1516687312.04,6628,3.25,72676.3,-14.09,-26.49,-27.99,0,*5A
1516687313.28,6629,3.25,72674.5,-14.05,-26.45,-27.89,0,*5A
1516687314.51,6630,3.31,72680.8,-14.05,-26.23,-27.77,0,*53
1516687315.75,6631,3.25,72676.3,-14.05,-26.39,-27.89,0,*58
1516687316.99,6632,3.31,72676.8,-14.05,-26.39,-27.93,0,*50
1516687318.25,6633,3.25,72678.0,-14.05,-26.39,-28.05,0,*51
1516687319.51,6634,3.25,72676.0,-14.05,-26.29,-27.93,0,*57
1516687320.76,6635,3.25,72676.8,-14.09,-26.45,-28.15,0,*51
1516687322.0,6636,3.25,72678.3,-14.09,-26.45,-28.15,0,*52
1516687323.26,6637,3.31,72678.3,-14.05,-26.45,-28.05,0,*5E
1516687324.5,6638,3.25,72674.0,-14.09,-26.45,-28.15,0,*5C
1516687325.77,6639,3.31,72678.3,-14.09,-26.49,-28.21,0,*56
1516687327.04,6640,3.25,72676.3,-14.09,-26.49,-28.21,0,*58
1516687328.29,6641,3.25,72672.8,-14.09,-26.65,-28.31,0,*56
1516687329.56,6642,3.25,72676.5,-14.09,-26.65,-28.21,0,*54
1516687330.82,6643,3.25,72676.5,-14.09,-26.65,-28.47,0,*55
1516687332.09,6644,3.25,72676.0,-14.09,-26.61,-28.47,0,*56
1516687333.33,6645,3.25,72676.5,-14.09,-26.65,-28.37,0,*54
1516687334.59,6646,3.25,72678.5,-14.09,-26.61,-28.47,0,*54
1516687335.85,6647,3.25,72678.3,-14.09,-26.65,-28.47,0,*51
1516687337.14,6648,3.25,72676.0,-14.05,-26.71,-28.47,0,*57
1516687338.43,6649,3.25,72680.3,-14.09,-26.77,-28.63,0,*5A
1516687339.7,6650,3.25,72678.0,-14.09,-26.77,-28.69,0,*58
1516687340.97,6651,3.25,72676.3,-14.09,-26.81,-28.69,0,*50
1516687342.21,6652,3.31,72680.5,-14.11,-26.97,-28.69,0,*5D
1516687343.47,6653,3.25,72678.8,-14.09,-26.97,-28.97,0,*54
1516687344.68,6654,3.25,72676.8,-14.11,-27.03,-28.97,0,*56
1516687345.91,6655,3.25,72676.8,-14.11,-27.03,-29.01,0,*59
1516687347.14,6656,3.25,72676.5,-14.11,-27.13,-29.01,0,*5B
1516687348.4,6657,3.25,72676.8,-14.09,-27.03,-29.01,0,*52
1516687349.63,6658,3.25,72678.8,-14.11,-27.13,-29.13,0,*56
1516687350.88,6659,3.25,72676.5,-14.09,-27.19,-29.23,0,*57
1516687352.15,6660,3.25,72676.5,-14.09,-27.19,-29.17,0,*5A
1516687353.38,6661,3.25,72676.5,-14.09,-27.13,-29.23,0,*56
1516687354.62,6662,3.25,72676.5,-14.11,-27.29,-29.39,0,*5E
1516687355.87,6663,3.25,72676.0,-14.11,-27.19,-29.39,0,*5C
1516687357.11,6664,3.25,72676.0,-14.11,-27.29,-29.39,0,*58
1516687358.36,6665,3.31,72676.3,-14.11,-27.19,-29.35,0,*56
1516687359.62,6666,3.25,72674.5,-14.11,-27.35,-29.51,0,*59
1516687360.88,6667,3.25,72676.0,-14.11,-27.35,-29.51,0,*58
1516687362.12,6668,3.25,72678.8,-14.11,-27.45,-29.57,0,*56
1516687363.39,6669,3.31,72682.8,-14.09,-27.61,-29.67,0,*5B
1516687364.66,6670,3.25,72678.5,-14.11,-27.61,-29.73,0,*5F
1516687365.9,6671,3.31,72682.3,-14.11,-27.61,-29.83,0,*51
1516687367.14,6672,3.31,72680.5,-14.11,-27.67,-29.73,0,*5B
1516687368.38,6673,3.25,72680.3,-14.11,-27.51,-30.01,0,*52
1516687369.65,6674,3.25,72676.3,-14.11,-27.61,-29.89,0,*5E
1516687370.92,6675,3.25,72678.3,-14.09,-27.67,-29.89,0,*50
1516687372.15,6676,3.25,72678.8,-14.11,-27.77,-30.05,0,*57
1516687373.36,6677,3.25,72676.8,-14.11,-27.77,-30.23,0,*52
1516687374.58,6678,3.25,72674.8,-14.11,-27.77,-30.23,0,*5D
1516687375.79,6679,3.25,72676.3,-14.11,-27.77,-30.23,0,*5C
1516687377.02,6680,3.25,72674.5,-14.11,-27.93,-30.39,0,*5B
1516687378.25,6681,3.25,72676.8,-14.11,-27.83,-30.45,0,*50
1516687379.55,6682,3.25,72674.5,-14.13,-28.05,-30.61,0,*56
1516687380.8,6683,3.31,72682.8,-14.15,-27.89,-30.61,0,*5A
1516687382.04,6684,3.25,72676.0,-14.13,-28.15,-30.67,0,*57
1516687383.32,6685,3.31,72680.0,-14.13,-28.05,-30.67,0,*57
1516687384.56,6686,3.25,72676.8,-14.13,-28.15,-30.67,0,*55
1516687385.81,6687,3.31,72680.3,-14.13,-28.15,-30.83,0,*5E
1516687387.11,6688,3.25,72678.3,-14.13,-28.21,-30.77,0,*5D
1516687388.39,6689,3.31,72676.8,-14.13,-28.25,-30.83,0,*53
1516687389.65,6690,3.25,72678.3,-14.13,-28.37,-30.95,0,*5F
1516687390.94,6691,3.31,72676.8,-14.13,-28.25,-30.95,0,*5D
1516687392.21,6692,3.25,72676.5,-14.13,-28.59,-31.01,0,*59
1516687393.47,6693,3.25,72676.5,-14.13,-28.53,-30.95,0,*5E
1516687394.74,6694,3.25,72678.3,-14.13,-28.69,-31.11,0,*5D
1516687396.0,6695,3.25,72672.8,-14.13,-28.75,-31.17,0,*57
1516687397.27,6696,3.25,72678.0,-14.13,-28.75,-31.01,0,*53
1516687398.51,6697,3.25,72678.0,-14.13,-28.85,-31.17,0,*5A
1516687399.75,6698,3.31,72680.5,-14.13,-29.07,-31.17,0,*5E
1516687401.05,6699,3.31,72682.5,-14.13,-29.01,-31.11,0,*5F
1516687402.29,6700,3.25,72678.0,-14.15,-29.07,-31.11,0,*5E
1516687403.53,6701,3.25,72678.3,-14.15,-29.23,-31.11,0,*59
1516687404.78,6702,3.25,72672.8,-14.15,-29.23,-31.11,0,*5A
1516687406.07,6703,3.31,72680.3,-14.13,-29.39,-31.11,0,*56
1516687407.32,6704,3.25,72676.0,-14.15,-29.29,-30.83,0,*5C
1516687408.57,6705,3.25,72678.5,-14.15,-29.39,-31.01,0,*57
1516687409.84,6706,3.25,72676.5,-14.15,-29.29,-30.77,0,*55
1516687411.1,6707,3.25,72680.3,-14.15,-29.39,-30.83,0,*5E
1516687412.35,6708,3.25,72672.0,-14.15,-29.45,-30.77,0,*51
1516687413.6,6709,3.25,72678.5,-14.15,-29.45,-30.77,0,*50
1516687414.89,6710,3.25,72678.8,-14.15,-29.39,-30.77,0,*53
1516687416.14,6711,3.31,72680.0,-14.15,-29.45,-30.77,0,*59
1516687417.37,6712,3.25,72678.8,-14.15,-29.45,-30.67,0,*5B
1516687418.62,6713,3.25,72680.3,-14.15,-29.57,-30.61,0,*5F
1516687419.9,6714,3.25,72676.8,-14.17,-29.51,-30.67,0,*5A
1516687421.17,6715,3.25,72676.5,-14.15,-29.29,-30.51,0,*53
1516687422.46,6716,3.25,72676.3,-14.17,-29.35,-30.51,0,*5F
1516687423.73,6717,3.31,72680.5,-14.17,-29.29,-30.27,0,*52
1516687425.0,6718,3.25,72676.8,-14.17,-29.29,-30.27,0,*5D
1516687426.29,6719,3.25,72678.3,-14.17,-29.13,-30.17,0,*56
1516687427.53,6720,3.31,72680.5,-14.15,-29.07,-30.05,0,*58
1516687428.82,6721,3.25,72676.3,-14.17,-29.13,-30.01,0,*5A
1516687430.09,6722,3.31,72682.5,-14.17,-29.07,-30.01,0,*5C
1516687431.36,6723,3.25,72682.0,-14.17,-28.91,-29.95,0,*56
1516687432.62,6724,3.25,72678.8,-14.17,-28.79,-29.95,0,*57
1516687433.89,6725,3.25,72680.0,-14.21,-28.63,-29.79,0,*5A
1516687435.15,6726,3.31,72682.0,-14.17,-28.63,-29.79,0,*5C
1516687436.39,6727,3.25,72676.0,-14.15,-28.59,-29.61,0,*5F
1516687437.63,6728,3.31,72682.8,-14.15,-28.43,-29.57,0,*5E
1516687438.89,6729,3.25,72680.8,-14.21,-28.43,-29.61,0,*5D
1516687440.16,6730,3.25,72680.8,-14.21,-28.43,-29.61,0,*55
1516687441.43,6731,3.25,72682.0,-14.21,-28.43,-29.67,0,*52
1516687442.7,6732,3.25,72676.5,-14.17,-28.25,-29.61,0,*52
1516687443.94,6733,3.25,72676.3,-14.21,-28.31,-29.61,0,*53
1516687445.21,6734,3.25,72676.0,-14.17,-28.25,-29.45,0,*52
1516687446.48,6735,3.25,72682.0,-14.17,-28.21,-29.45,0,*57
1516687447.77,6736,3.25,72680.5,-14.17,-28.09,-29.51,0,*5B
1516687449.06,6737,3.25,72680.0,-14.17,-28.09,-29.35,0,*58
1516687450.35,6738,3.25,72680.8,-14.21,-28.05,-29.29,0,*53
1516687451.59,6739,3.31,72680.3,-14.21,-27.89,-29.23,0,*53
1516687452.82,6740,3.25,72680.5,-14.17,-27.77,-29.23,0,*59
1516687454.09,6741,3.25,72676.3,-14.21,-27.77,-29.13,0,*5E
1516687455.35,6742,3.25,72680.0,-14.21,-27.77,-29.13,0,*5D
1516687456.59,6743,3.25,72682.5,-14.21,-27.71,-29.07,0,*5F
1516687457.86,6744,3.25,72678.0,-14.17,-27.61,-28.97,0,*54
1516687459.09,6745,3.25,72682.8,-14.21,-27.55,-28.97,0,*57
1516687460.38,6746,3.25,72680.3,-14.21,-27.45,-28.79,0,*55
1516687461.67,6747,3.25,72680.3,-14.21,-27.45,-28.79,0,*54
1516687462.94,6748,3.25,72680.3,-14.21,-27.29,-28.75,0,*5D
1516687464.22,6749,3.25,72676.5,-14.21,-27.29,-28.63,0,*5B
1516687465.52,6750,3.25,72682.0,-14.21,-27.23,-28.63,0,*59
1516687466.75,6751,3.25,72680.5,-14.23,-27.19,-28.69,0,*59
1516687468.03,6752,3.25,72682.5,-14.21,-27.07,-28.59,0,*54
1516687469.29,6753,3.31,72686.5,-14.21,-27.03,-28.47,0,*5E
1516687470.56,6754,3.25,72682.0,-14.21,-26.87,-28.43,0,*50
1516687471.84,6755,3.25,72680.8,-14.21,-26.77,-28.31,0,*5B
1516687473.06,6756,3.25,72680.3,-14.23,-26.65,-28.37,0,*5F
1516687474.35,6757,3.25,72678.5,-14.21,-26.55,-28.43,0,*5C
1516687475.62,6758,3.25,72682.5,-14.21,-26.45,-28.25,0,*52
1516687476.89,6759,3.25,72680.5,-14.21,-26.39,-28.21,0,*5C
1516687478.15,6760,3.25,72682.8,-14.21,-26.39,-28.31,0,*57
1516687479.44,6761,3.25,72682.0,-14.21,-26.29,-28.21,0,*56
1516687480.74,6762,3.25,72682.8,-14.21,-26.13,-28.25,0,*58
1516687482.04,6763,3.25,72684.0,-14.21,-26.13,-28.21,0,*5D
1516687483.31,6764,3.25,72680.8,-14.21,-26.07,-28.21,0,*5F
1516687484.56,6765,3.25,72682.3,-14.23,-26.07,-28.25,0,*58
1516687485.81,6766,3.25,72682.3,-14.23,-25.97,-28.15,0,*52
1516687487.02,6767,3.25,72682.5,-14.23,-25.65,-27.93,0,*5F
1516687488.27,6768,3.25,72684.5,-14.25,-25.65,-28.15,0,*57
1516687489.54,6769,3.25,72684.5,-14.23,-25.81,-28.25,0,*59
1516687490.81,6770,3.25,72684.5,-14.23,-25.81,-28.25,0,*51
1516687492.05,6771,3.25,72684.3,-14.23,-25.65,-28.25,0,*5A
1516687493.32,6772,3.25,72684.0,-14.23,-25.75,-28.25,0,*58
1516687494.6,6773,3.25,72686.8,-14.23,-25.75,-28.25,0,*59
1516687495.84,6774,3.25,72682.3,-14.25,-25.65,-28.15,0,*5A
1516687497.13,6775,3.25,72684.3,-14.21,-25.45,-28.05,0,*5C
1516687498.38,6776,3.25,72686.3,-14.23,-25.49,-27.99,0,*5B
1516687499.62,6777,3.25,72684.8,-14.23,-25.61,-28.09,0,*56
1516687500.86,6778,3.31,72690.3,-14.23,-25.65,-28.09,0,*5D
1516687502.11,6779,3.25,72684.8,-14.23,-25.65,-27.99,0,*5A
1516687503.35,6780,3.25,72686.5,-14.23,-25.65,-28.09,0,*5A
1516687504.59,6781,3.31,72688.3,-14.23,-25.61,-28.09,0,*5F
1516687505.86,6782,3.25,72686.0,-14.25,-25.61,-28.09,0,*5A
1516687507.1,6783,3.25,72686.5,-14.23,-25.61,-28.09,0,*5D
1516687508.31,6784,3.25,72686.0,-14.23,-25.35,-27.93,0,*57
1516687509.57,6785,3.25,72686.3,-14.23,-25.45,-27.99,0,*5B
1516687510.82,6786,3.25,72686.5,-14.23,-25.61,-27.99,0,*5E
1516687512.03,6787,3.25,72686.0,-14.23,-25.35,-27.77,0,*5E
1516687513.24,6788,3.31,72686.8,-14.23,-25.35,-27.93,0,*5B
1516687514.45,6789,3.25,72684.5,-14.23,-25.35,-27.93,0,*5A
1516687515.68,6790,3.25,72686.5,-14.25,-25.35,-27.93,0,*54
1516687516.92,6791,3.25,72688.0,-14.23,-25.35,-27.83,0,*52
1516687518.16,6792,3.25,72684.8,-14.23,-25.29,-27.77,0,*57
1516687519.39,6793,3.25,72686.0,-14.23,-25.19,-27.83,0,*5E
1516687520.63,6794,3.25,72686.5,-14.23,-25.29,-27.77,0,*51
1516687521.89,6795,3.25,72688.0,-14.23,-25.29,-27.83,0,*5B
1516687523.13,6796,3.25,72684.8,-14.23,-25.19,-27.99,0,*50
1516687524.38,6797,3.25,72686.8,-14.23,-25.13,-27.99,0,*5B
1516687525.61,6798,3.25,72686.8,-14.23,-25.19,-28.09,0,*58
1516687526.88,6799,3.25,72684.8,-14.23,-25.29,-28.09,0,*5A
1516687528.15,6800,3.25,72688.5,-14.23,-25.29,-28.25,0,*5B
1516687529.39,6801,3.25,72684.3,-14.23,-25.29,-28.31,0,*5F
1516687530.66,6802,3.25,72686.3,-14.25,-25.29,-28.31,0,*5A
1516687531.89,6803,3.25,72690.3,-14.25,-25.35,-28.37,0,*50
1516687533.15,6804,3.25,72690.5,-14.23,-25.45,-28.47,0,*51
1516687534.39,6805,3.25,72690.8,-14.23,-25.45,-28.53,0,*55
1516687535.63,6806,3.25,72686.5,-14.23,-25.19,-28.25,0,*5E
1516687536.87,6807,3.25,72690.5,-14.23,-25.19,-28.25,0,*5F
1516687538.13,6808,3.25,72688.5,-14.23,-25.29,-28.25,0,*53
1516687539.42,6809,3.25,72690.3,-14.21,-25.29,-28.09,0,*5E
1516687540.67,6810,3.25,72686.3,-14.21,-25.39,-28.31,0,*5C
1516687541.97,6811,3.31,72688.3,-14.21,-25.75,-28.59,0,*5B
1516687543.26,6812,3.25,72688.3,-14.21,-25.75,-28.47,0,*57
1516687544.53,6813,3.25,72682.8,-14.21,-25.91,-28.59,0,*53
1516687545.83,6814,3.25,72684.8,-14.21,-26.13,-28.59,0,*5D
1516687547.11,6815,3.25,72686.0,-14.17,-26.29,-28.75,0,*5E
1516687548.41,6816,3.25,72686.5,-14.21,-26.29,-28.63,0,*5F
1516687549.71,6817,3.25,72684.3,-14.21,-26.29,-28.63,0,*5E
1516687550.98,6818,3.25,72686.0,-14.21,-26.39,-28.59,0,*59
1516687552.24,6819,3.25,72686.8,-14.17,-26.45,-28.75,0,*58
1516687553.53,6820,3.31,72686.0,-14.21,-26.55,-28.59,0,*58
1516687554.8,6821,3.25,72684.3,-14.17,-26.61,-28.59,0,*5B
1516687556.09,6822,3.25,72682.8,-14.17,-26.71,-28.59,0,*59
1516687557.36,6823,3.25,72680.8,-14.21,-26.87,-28.59,0,*54
1516687558.62,6824,3.25,72682.3,-14.17,-26.87,-28.59,0,*56
1516687559.89,6825,3.25,72682.8,-14.21,-27.03,-28.59,0,*5F
1516687561.16,6826,3.25,72676.0,-14.17,-27.07,-28.59,0,*5D
1516687562.4,6827,3.25,72678.8,-14.15,-27.03,-28.43,0,*51
1516687563.62,6828,3.25,72680.3,-14.15,-27.07,-28.53,0,*5B
1516687564.9,6829,3.25,72678.8,-14.17,-27.23,-28.47,0,*5B
1516687566.19,6830,3.25,72676.5,-14.17,-27.23,-28.47,0,*53
1516687567.48,6831,3.25,72676.0,-14.17,-27.23,-28.43,0,*56
1516687568.75,6832,3.25,72678.5,-14.17,-27.29,-28.43,0,*5F
1516687570.01,6833,3.25,72678.0,-14.17,-27.29,-28.43,0,*5E
1516687571.28,6834,3.25,72676.8,-14.17,-27.39,-28.31,0,*5D
1516687572.58,6835,3.25,72678.5,-14.17,-27.39,-28.21,0,*5D
1516687573.84,6836,3.25,72682.5,-14.15,-27.23,-28.05,0,*51
1516687575.11,6837,3.25,72682.0,-14.15,-27.23,-27.99,0,*5A
1516687576.37,6838,3.25,72680.3,-14.15,-27.23,-28.05,0,*5F
1516687577.64,6839,3.25,72680.3,-14.13,-27.07,-27.83,0,*5F
1516687578.86,6840,3.25,72682.5,-14.15,-27.07,-27.89,0,*5D
1516687580.11,6841,3.31,72686.0,-14.15,-27.19,-27.83,0,*59
1516687581.37,6842,3.31,72684.5,-14.15,-27.19,-27.99,0,*51
1516687582.64,6843,3.25,72680.5,-14.13,-27.07,-27.99,0,*59
1516687583.89,6844,3.25,72686.8,-14.15,-27.07,-27.99,0,*58
1516687585.16,6845,3.25,72684.5,-14.13,-27.07,-27.99,0,*5F
1516687586.43,6846,3.25,72686.0,-14.13,-27.07,-28.05,0,*56
1516687587.67,6847,3.25,72686.5,-14.13,-27.03,-28.15,0,*52
1516687588.94,6848,3.25,72684.8,-14.13,-27.07,-28.05,0,*58
1516687590.23,6849,3.25,72686.8,-14.13,-26.97,-28.05,0,*51
1516687591.51,6850,3.25,72682.8,-14.15,-26.97,-28.21,0,*59
1516687592.77,6851,3.25,72684.0,-14.13,-27.03,-28.25,0,*56
1516687594.04,6852,3.25,72684.5,-14.13,-27.03,-28.25,0,*55
1516687595.3,6853,3.25,72680.8,-14.13,-27.03,-28.43,0,*54
1516687596.56,6854,3.25,72682.5,-14.13,-26.87,-28.43,0,*5E
1516687597.79,6855,3.25,72684.0,-14.15,-26.87,-28.43,0,*59
1516687599.0,6856,3.25,72684.8,-14.15,-26.87,-28.53,0,*5B
1516687600.25,6857,3.25,72682.3,-14.15,-26.81,-28.53,0,*5C
1516687601.54,6858,3.25,72680.0,-14.13,-26.81,-28.59,0,*5F
1516687602.81,6859,3.25,72682.3,-14.15,-26.97,-28.59,0,*5F
1516687604.03,6860,3.25,72682.8,-14.15,-27.03,-28.69,0,*5A
1516687605.27,6861,3.25,72684.5,-14.15,-26.97,-28.85,0,*55
1516687606.53,6862,3.31,72686.0,-14.13,-27.03,-28.75,0,*53
1516687607.8,6863,3.25,72680.8,-14.13,-27.07,-28.91,0,*5C
1516687609.06,6864,3.25,72680.8,-14.13,-27.03,-29.01,0,*57
1516687610.32,6865,3.25,72686.3,-14.13,-27.03,-29.01,0,*56
1516687611.59,6866,3.25,72686.0,-14.13,-27.07,-29.01,0,*51
1516687612.85,6867,3.25,72690.3,-14.13,-27.07,-29.17,0,*57
1516687614.1,6868,3.25,72688.5,-14.13,-27.19,-29.23,0,*50
1516687615.35,6869,3.25,72688.3,-14.13,-27.19,-29.07,0,*57
1516687616.61,6870,3.25,72682.5,-14.13,-27.07,-29.29,0,*5C
1516687617.84,6871,3.25,72684.8,-14.11,-27.13,-29.17,0,*57
1516687619.09,6872,3.25,72684.8,-14.13,-27.07,-29.29,0,*5E
1516687620.35,6873,3.25,72684.0,-14.13,-27.03,-29.17,0,*56
1516687621.61,6874,3.25,72684.8,-14.13,-27.07,-29.29,0,*58
1516687622.89,6875,3.25,72684.5,-14.13,-27.19,-29.39,0,*57
1516687624.17,6876,3.25,72688.3,-14.13,-27.23,-29.29,0,*5C
1516687625.43,6877,3.25,72686.3,-14.13,-27.23,-29.45,0,*57
1516687626.69,6878,3.25,72686.8,-14.13,-27.23,-29.45,0,*58
1516687627.91,6879,3.25,72684.8,-14.11,-27.29,-29.57,0,*52
1516687629.18,6880,3.25,72686.8,-14.11,-27.45,-29.51,0,*58
1516687630.44,6881,3.25,72686.5,-14.11,-27.45,-29.51,0,*59
1516687631.67,6882,3.25,72682.5,-14.11,-27.35,-29.57,0,*5B
1516687632.89,6883,3.25,72690.0,-14.11,-27.29,-29.57,0,*57
1516687634.15,6884,3.25,72684.8,-14.11,-27.35,-29.51,0,*5B
1516687635.41,6885,3.25,72686.5,-14.11,-27.45,-29.51,0,*5D
1516687636.68,6886,3.25,72686.3,-14.11,-27.45,-29.51,0,*5E
1516687637.91,6887,3.25,72682.5,-14.11,-27.51,-29.73,0,*5A
1516687639.21,6888,3.25,72680.5,-14.09,-27.61,-29.73,0,*5F
1516687640.47,6889,3.25,72682.0,-14.11,-27.61,-29.73,0,*57
1516687641.68,6890,3.25,72684.8,-14.11,-27.77,-29.83,0,*57
1516687642.97,6891,3.25,72684.0,-14.09,-27.83,-30.01,0,*56
1516687644.21,6892,3.31,72690.5,-14.11,-27.77,-30.01,0,*57
1516687645.47,6893,3.25,72684.8,-14.11,-27.83,-30.01,0,*5D
1516687646.73,6894,3.25,72686.5,-14.09,-27.77,-30.01,0,*58
1516687648.0,6895,3.25,72688.8,-14.09,-27.77,-30.01,0,*59
1516687649.26,6896,3.25,72684.5,-14.09,-27.67,-29.89,0,*53
1516687650.5,6897,3.25,72684.0,-14.11,-27.77,-29.89,0,*5A
1516687651.74,6898,3.25,72690.8,-14.11,-27.77,-30.01,0,*5D
1516687653.03,6899,3.25,72684.8,-14.09,-27.83,-30.01,0,*5E
1516687654.29,6900,3.25,72686.0,-14.09,-27.77,-29.89,0,*5C
1516687655.56,6901,3.25,72690.3,-14.05,-27.61,-29.79,0,*59
1516687656.83,6902,3.25,72686.5,-14.05,-27.45,-29.83,0,*59
1516687658.12,6903,3.25,72690.3,-14.09,-27.45,-29.89,0,*5E
1516687659.38,6904,3.25,72684.8,-14.05,-27.45,-29.95,0,*58
1516687660.67,6905,3.25,72684.3,-14.09,-27.35,-29.89,0,*5F
1516687661.96,6906,3.25,72688.0,-14.09,-27.35,-29.89,0,*5C
1516687663.2,6907,3.25,72690.0,-14.11,-27.29,-30.05,0,*55
1516687664.44,6908,3.25,72690.0,-14.05,-27.13,-29.83,0,*50
1516687665.73,6909,3.25,72690.8,-14.05,-27.23,-30.01,0,*50
1516687667.01,6910,3.25,72688.3,-14.09,-27.19,-30.01,0,*5D
1516687668.25,6911,3.25,72686.0,-14.05,-27.07,-29.83,0,*5D
1516687669.49,6912,3.25,72688.3,-14.05,-27.07,-29.95,0,*59
1516687670.72,6913,3.25,72688.3,-14.05,-27.13,-30.11,0,*59
1516687671.96,6914,3.25,72690.3,-14.05,-27.13,-30.11,0,*5E
1516687673.2,6915,3.25,72688.0,-14.05,-27.13,-30.33,0,*5F
1516687674.44,6916,3.25,72690.0,-14.05,-27.07,-30.33,0,*59
1516687675.73,6917,3.25,72688.5,-14.05,-27.23,-30.55,0,*5E
1516687677.02,6918,3.25,72692.0,-14.05,-27.23,-30.51,0,*55
1516687678.28,6919,3.25,72688.3,-14.05,-27.13,-30.55,0,*53
1516687679.54,6920,3.25,72690.5,-14.05,-27.29,-30.55,0,*50
1516687680.81,6921,3.25,72690.0,-14.05,-27.23,-30.67,0,*5A
1516687682.08,6922,3.31,72692.5,-14.05,-27.23,-30.67,0,*59
1516687683.33,6923,3.25,72692.8,-14.05,-27.13,-30.67,0,*5B
1516687684.59,6924,3.25,72690.3,-14.05,-27.13,-30.55,0,*5D
1516687685.88,6925,3.25,72688.5,-14.05,-27.23,-30.73,0,*5B
1516687687.16,6926,3.25,72686.5,-14.05,-27.23,-30.83,0,*57
1516687688.43,6927,3.25,72688.3,-14.05,-27.29,-30.73,0,*53
1516687689.68,6928,3.25,72690.0,-14.05,-27.29,-30.83,0,*53
1516687690.95,6929,3.25,72688.8,-14.05,-27.55,-30.89,0,*53
1516687692.22,6930,3.25,72690.0,-14.05,-27.55,-30.89,0,*5B
1516687693.49,6931,3.25,72690.0,-14.05,-27.45,-30.83,0,*51
1516687694.79,6932,3.25,72688.0,-14.05,-27.39,-30.73,0,*56
1516687696.06,6933,3.25,72688.3,-14.05,-27.55,-30.89,0,*58
1516687697.33,6934,3.31,72694.8,-14.05,-27.55,-30.89,0,*5F
1516687698.62,6935,3.25,72690.8,-14.05,-27.45,-30.73,0,*5A
1516687699.92,6936,3.25,72688.3,-14.05,-27.45,-30.73,0,*59
1516687701.17,6937,3.25,72688.8,-14.05,-27.55,-30.67,0,*5C
1516687702.44,6938,3.25,72694.0,-14.05,-27.45,-30.67,0,*52
1516687703.71,6939,3.25,72690.3,-14.05,-27.45,-30.67,0,*53
1516687704.96,6940,3.25,72694.0,-14.05,-27.55,-30.67,0,*5C
1516687706.25,6941,3.25,72694.3,-14.05,-27.45,-30.73,0,*59
1516687707.54,6942,3.25,72688.5,-14.05,-27.45,-30.55,0,*5E
1516687708.8,6943,3.25,72692.3,-14.05,-27.55,-30.55,0,*5E
1516687710.09,6944,3.25,72692.8,-14.05,-27.45,-30.51,0,*5C
1516687711.38,6945,3.25,72692.0,-14.05,-27.45,-30.51,0,*5D
1516687712.67,6946,3.25,72690.5,-14.05,-27.39,-30.51,0,*55